This demonstration page uses our WeatherBlox Daily Observations layout. Learn more.

Left ArrowRight Arrow

39.95238, -75.16362

Hourly Observations for May 15, 2018

Temp ( °F °C ) Dew Point ( °F °C ) Humidity (%) Winds ( mph kmh ) Pressure ( in mb ) Visibility ( mi km ) Precip ( " mm )
12:10 am 00:10 Cloudy 65 18.3 62 16.7 90 90 VRB 3 6 29.94 1014 10 16 0.00 0.00
12:54 am 00:54 Cloudy 65 18.3 62 16.7 90 90 SW 5 7 29.94 1014 10 16 0.00 0.00
1:08 am 01:08 Cloudy 65 18.3 62 16.7 90 90 Calm 29.94 1014 8 13 0.00 0.00
1:54 am 01:54 Cloudy 64 17.8 61 16.1 90 90 SSW 5 7 29.93 1013 8 13 0.00 0.00
2:54 am 02:54 Cloudy 63 17.2 61 16.1 93 93 SSW 5 7 29.91 1013 7 11 0.00 0.00
3:03 am 03:03 Mostly Cloudy with Mist and Fog 63 17.2 61 16.1 93 93 SSW 6 9 29.91 1013 6 10 0.00 0.00
3:54 am 03:54 Mostly Cloudy with Mist and Fog 64 17.8 62 16.7 93 93 WSW 8 13 29.91 1013 6 10 0.00 0.00
4:54 am 04:54 Partly Cloudy with Mist and Fog 64 17.8 62 16.7 93 93 Calm 29.91 1013 6 10 0.00 0.00
5:54 am 05:54 Cloudy with Mist and Fog 65 18.3 62 16.7 90 90 SW 8 13 29.93 1013 6 10 0.00 0.00
6:05 am 06:05 Mostly Cloudy 65 18.3 62 16.7 90 90 WSW 10 17 29.94 1014 8 13 0.00 0.00
6:54 am 06:54 Mostly Cloudy 67 19.4 63 17.2 87 87 SW 9 15 29.92 1013 10 16 0.00 0.00
7:54 am 07:54 Partly Cloudy 69 20.6 62 16.7 78 78 SW 14 22 29.93 1014 10 16 0.00 0.00
8:54 am 08:54 Partly Cloudy 72 22.2 62 16.7 71 71 WSW 10 17 29.92 1013 10 16 0.00 0.00
9:54 am 09:54 Partly Cloudy 76 24.4 63 17.2 64 64 SW 18 30 29.92 1013 10 16 0.00 0.00
10:54 am 10:54 Partly Cloudy 77 25 64 17.8 64 64 WSW 15 24 29.91 1013 10 16 0.00 0.00
11:54 am 11:54 Partly Cloudy 79 26.1 66 18.9 65 65 SW 13 20 29.89 1012 10 16 0.00 0.00
12:54 pm 12:54 Partly Cloudy 82 27.8 67 19.4 60 60 SW 14 22 29.87 1012 10 16 0.00 0.00
1:54 pm 13:54 Partly Cloudy 83 28.3 68 20 61 61 SSW 14 22 29.84 1011 10 16 0.00 0.00
2:54 pm 14:54 Partly Cloudy 86 30 68 20 55 55 WSW 17 28 29.80 1009 10 16 0.00 0.00
3:54 pm 15:54 Partly Cloudy 87 30.6 68 20 53 53 SSW 14 22 29.79 1009 10 16 0.00 0.00
4:54 pm 16:54 Partly Cloudy 88 31.1 69 20.6 54 54 SW 16 26 29.80 1009 10 16 0.00 0.00
5:54 pm 17:54 Mostly Cloudy 86 30 69 20.6 57 57 WSW 12 19 29.83 1010 10 16 0.00 0.00
6:15 pm 18:15 Mostly Cloudy 81 27.2 56 13.3 42 42 NW 22 35 29.85 1011 10 16 0.00 0.00
6:24 pm 18:24 Mostly Cloudy with Thunderstorms 81 27.2 55 12.8 41 41 NW 18 30 29.85 1011 10 16 0.00 0.00
6:38 pm 18:38 Windy with Storms Likely 77 25 62 16.7 60 60 WNW 22 35 29.88 1012 3 5 0.00 0.03
6:42 pm 18:42 Cloudy with Strong Thunderstorms 74 23.3 64 17.8 71 71 WNW 17 28 29.88 1012 2 2 0.04 1.02
6:54 pm 18:54 Cloudy with Strong Thunderstorms 71 21.7 66 18.9 84 84 WSW 17 28 29.90 1013 2 2 0.22 5.59
7:09 pm 19:09 Cloudy with Strong Thunderstorms 70 21.1 67 19.4 90 90 SW 10 17 29.88 1012 4 6 0.11 2.79
7:28 pm 19:28 Cloudy with Thunderstorms 69 20.6 67 19.4 93 93 WSW 13 20 29.91 1013 6 10 0.14 3.56
7:54 pm 19:54 Cloudy with Thunderstorms 68 20 66 18.9 93 93 ESE 5 7 29.87 1012 7 11 0.16 4.06
8:09 pm 20:09 Cloudy with Thunderstorms 68 20 66 18.9 93 93 SE 3 6 29.91 1013 5 8 0.01 0.25
8:54 pm 20:54 Cloudy with Thunderstorms 69 20.6 66 18.9 90 90 S 7 11 29.92 1013 6 10 0.12 3.05
9:48 pm 21:48 Cloudy with Thunderstorms 66 19 66 19 100 100 VRB 6 9 29.97 1015 8 13 0.03 0.76
9:54 pm 21:54 Cloudy with Thunderstorms 68 20 66 18.9 93 93 WSW 6 9 29.98 1015 8 13 0.03 0.76
10:51 pm 22:51 Cloudy with Light Rain 66 19 66 19 100 100 Calm 29.97 1015 10 16 0.01 0.25
10:54 pm 22:54 Cloudy with Light Rain 67 19.4 66 18.9 97 97 Calm 29.96 1015 10 16 0.01 0.25
11:27 pm 23:27 Cloudy 68 20 66 18.9 93 93 WSW 6 9 30.00 1016 8 13 0.01 0.25
11:38 pm 23:38 Cloudy 68 20 66 18.9 93 93 WSW 5 7 30.00 1016 8 13 0.01 0.25
11:54 pm 23:54 Cloudy 68 20 66 18.9 93 93 Calm 29.99 1016 9 14 0.01 0.25

Powered by AerisWeather